User: anonymous   Login
Location: Unspecified
(0.0000°N, 0.0000°E)
Time: 09:16:28
(UTC+00:00)
Language:

ERS-1 - Orbit

View from above orbital plane
View from above orbital plane
View from above satellite
View from above satellite

Ground track
Ground track

The orbit data is extracted from the following two-line orbital elements,

1 21574U 91050A   18018.46849534 +.00000007 +00000-0 +16674-4 0  9990
2 21574 098.4873 327.4901 0033693 033.9772 326.3564 14.37627737388523
Epoch (UTC): 18 January 2018 11:14:37
Eccentricity: 0.0033693
inclination: 98.4873°
perigee height: 742 km
apogee height: 790 km
right ascension of ascending node: 327.4901°
argument of perigee: 33.9772°
revolutions per day: 14.37627737
mean anomaly at epoch: 326.3564°
orbit number at epoch: 38852

The dashed part of the orbit path shows where the satellite is in the earth's shadow,  

DLR